Greenville, AL

9:12 AM CDT on September 20, 2017 (GMT -0500)
Greenville Municipal

Weather History for KPRN - April, 2014

Change the Weather History Date:

Monday, April 14, 2014

  Actual Average Record
Temperature  
Mean Temperature 66 °F -  
Max Temperature 72 °F 78 °F 92 °F (1954)
Min Temperature 61 °F 54 °F 35 °F (1940)
Cooling Degree Days 1    
Growing Degree Days 16 (Base 50)    
Moisture  
Dew Point 62 °F    
Average Humidity 92    
Maximum Humidity 100    
Minimum Humidity 70    
Precipitation  
Precipitation 1.94 in - - ()
Sea Level Pressure  
Sea Level Pressure 29.87 in    
Wind  
Wind Speed 5 mph (SE)    
Max Wind Speed 10 mph    
Max Gust Speed 21 mph    
Visibility 5 miles    
Events Fog , Rain , Thunderstorm    
Averages and records for this station are not official NWS values.
T = Trace of Precipitation, MM = Missing Value Source: NWS Daily Summary

Daily Weather History Graph

Daily Weather History Graph

Search for Another Location

Airport or City:

Trip Planner

Search our weather history database for the weather conditions in past years. The results will help you decide how hot, cold, wet, or windy it might be!

Date:

Astronomy

Apr. 14, 2014 Rise Set
Actual Time 6:18 AM CDT 7:14 PM CDT
Civil Twilight 5:53 AM CDT 7:39 PM CDT
Nautical Twilight 5:24 AM CDT 8:09 PM CDT
Astronomical Twilight 4:54 AM CDT 8:40 PM CDT
Moon 6:53 PM CDT (4/14) 5:48 AM CDT (4/14)
Length of Visible Light 13h 46m
Length of Day
12h 55m
Full, 100% of the Moon is Illuminated
Apr 14
Full
Apr 15
Full
Apr 22
Last Quarter
Apr 29
New
May 6
First Quarter

Hourly Weather History & Observations

Time (CDT) Temp. Dew Point Humidity Pressure Visibility Wind Dir Wind Speed Gust Speed Precip Events Conditions
1:56 AM 62.1 °F 54.0 °F 75% 29.91 in 10.0 mi South 4.6 mph - N/A   Clear
2:56 AM 61.0 °F 57.0 °F 87% 29.89 in 10.0 mi SSW 4.6 mph - N/A   Clear
3:56 AM 61.0 °F 57.9 °F 90% 29.86 in 10.0 mi South 4.6 mph - N/A   Clear
4:56 AM 61.0 °F 59.0 °F 93% 29.85 in 10.0 mi South 6.9 mph - N/A   Clear
5:56 AM 61.0 °F 59.0 °F 93% 29.87 in 10.0 mi SSE 4.6 mph - N/A   Clear
6:56 AM 62.1 °F 59.0 °F 90% 29.86 in 10.0 mi SE 5.8 mph - N/A   Clear
7:48 AM 64.4 °F 60.8 °F 88% 29.90 in 10.0 mi South 6.9 mph - N/A   Mostly Cloudy
7:56 AM 64.0 °F 60.1 °F 87% 29.89 in 10.0 mi South 8.1 mph - N/A   Mostly Cloudy
8:56 AM 66.9 °F 61.0 °F 81% 29.88 in 10.0 mi South 8.1 mph 18.4 mph N/A   Mostly Cloudy
9:56 AM 71.1 °F 61.0 °F 70% 29.87 in 10.0 mi South 10.4 mph 20.7 mph N/A   Mostly Cloudy
10:26 AM 69.8 °F 60.8 °F 73% 29.92 in 10.0 mi South 5.8 mph - N/A   Overcast
10:56 AM 70.0 °F 64.0 °F 81% 29.92 in 10.0 mi Calm Calm - 0.00 in Rain Light Rain
11:21 AM 66.2 °F 64.4 °F 94% 29.93 in 2.5 mi WNW 8.1 mph - 0.04 in Rain Heavy Rain
11:33 AM 66.2 °F 64.4 °F 94% 29.94 in 1.2 mi NW 8.1 mph - 0.12 in Rain Heavy Rain
11:49 AM 66.2 °F 64.4 °F 94% 29.93 in 0.5 mi NNW 6.9 mph - 0.32 in Fog , Rain Heavy Rain
11:56 AM 66.0 °F 63.0 °F 90% 29.92 in 0.8 mi NW 6.9 mph - 0.39 in Rain Heavy Rain
12:01 PM 66.2 °F 64.4 °F 94% 29.93 in 1.5 mi NW 4.6 mph - 0.00 in Rain Rain
12:04 PM 66.2 °F 64.4 °F 94% 29.93 in 3.0 mi NW 3.5 mph - 0.00 in Rain Light Rain
12:18 PM 66.2 °F 62.6 °F 88% 29.93 in 3.0 mi NNW 9.2 mph - 0.01 in Rain Light Rain
12:38 PM 64.4 °F 62.6 °F 94% 29.93 in 2.5 mi North 6.9 mph - 0.03 in Rain Light Rain
12:46 PM 64.4 °F 62.6 °F 94% 29.93 in 3.0 mi North 5.8 mph - 0.03 in Rain Light Rain
12:56 PM 64.0 °F 62.1 °F 93% 29.92 in 1.0 mi Calm Calm - 0.11 in Rain Heavy Rain
1:03 PM 64.4 °F 62.6 °F 94% 29.93 in 0.8 mi NNW 5.8 mph - 0.06 in Rain Heavy Rain
1:10 PM 64.4 °F 62.6 °F 94% 29.93 in 2.0 mi Calm Calm - 0.06 in Rain Light Rain
1:12 PM 64.4 °F 62.6 °F 94% 29.93 in 3.0 mi NNW 3.5 mph - 0.07 in Rain Rain
1:43 PM 64.4 °F 62.6 °F 94% 29.92 in 1.8 mi North 3.5 mph - 0.13 in Rain Heavy Rain
1:56 PM 64.9 °F 62.1 °F 90% 29.91 in 1.0 mi North 3.5 mph - 0.25 in Rain Heavy Rain
2:22 PM 64.4 °F 62.6 °F 94% 29.91 in 2.5 mi NNE 3.5 mph - 0.12 in Rain Rain
2:34 PM 64.4 °F 62.6 °F 94% 29.90 in 5.0 mi ENE 4.6 mph - 0.12 in Rain Light Rain
2:56 PM 64.9 °F 63.0 °F 93% 29.88 in 7.0 mi ENE 3.5 mph - 0.13 in Rain Light Rain
3:23 PM 64.4 °F 62.6 °F 94% 29.88 in 2.0 mi Calm Calm - 0.07 in Rain Heavy Rain
3:45 PM 64.4 °F 62.6 °F 94% 29.88 in 6.0 mi Calm Calm - 0.11 in Rain Light Rain
3:56 PM 66.0 °F 63.0 °F 90% 29.86 in 4.0 mi NE 3.5 mph - 0.11 in Rain Light Rain
4:36 PM 64.4 °F 62.6 °F 94% 29.85 in 2.0 mi NNE 4.6 mph - 0.06 in Rain Rain
4:48 PM 64.4 °F 62.6 °F 94% 29.84 in 5.0 mi Calm Calm - 0.06 in Rain Light Rain
4:56 PM 64.0 °F 62.1 °F 93% 29.83 in 1.8 mi East 4.6 mph - 0.09 in Rain Heavy Rain
5:08 PM 64.4 °F 62.6 °F 94% 29.83 in 3.0 mi East 3.5 mph - 0.03 in Rain Light Rain
5:34 PM 64.4 °F 62.6 °F 94% 29.83 in 10.0 mi ENE 4.6 mph - 0.03 in   Overcast
5:56 PM 64.0 °F 62.1 °F 93% 29.82 in 10.0 mi ESE 3.5 mph - 0.03 in Rain Light Rain
6:43 PM 62.6 °F 62.6 °F 100% 29.81 in 10.0 mi SE 3.5 mph - 0.01 in   Mostly Cloudy
6:56 PM 63.0 °F 62.1 °F 97% 29.80 in 10.0 mi SE 3.5 mph - 0.01 in   Mostly Cloudy
7:07 PM 62.6 °F 62.6 °F 100% 29.80 in 10.0 mi SSE 3.5 mph - N/A   Mostly Cloudy
7:27 PM 64.4 °F 62.6 °F 94% 29.78 in 9.0 mi SE 3.5 mph - 0.01 in Rain Light Rain
7:44 PM 64.4 °F 62.6 °F 94% 29.77 in 6.0 mi SE 8.1 mph - 0.04 in Rain Rain
7:56 PM 64.0 °F 63.0 °F 96% 29.78 in 6.0 mi SSE 5.8 mph - 0.05 in Rain Light Rain
8:56 PM 64.9 °F 63.0 °F 93% 29.81 in 3.0 mi Calm Calm - 0.17 in Rain , Thunderstorm Heavy Thunderstorms and Rain
9:05 PM 64.4 °F 62.6 °F 94% 29.81 in 3.0 mi South 5.8 mph - 0.03 in Rain Heavy Rain
9:14 PM 64.4 °F 64.4 °F 100% 29.84 in 4.0 mi SSW 3.5 mph - 0.07 in Rain Heavy Rain
9:38 PM 64.4 °F 64.4 °F 100% 29.84 in 2.0 mi Calm Calm - 0.18 in Rain Heavy Rain
9:51 PM 64.4 °F 64.4 °F 100% 29.87 in 4.0 mi SSW 4.6 mph - 0.23 in Rain Heavy Rain
9:56 PM 64.9 °F 64.0 °F 97% 29.85 in 4.0 mi South 5.8 mph - 0.24 in Rain Heavy Rain
10:16 PM 66.2 °F 64.4 °F 94% 29.83 in 2.0 mi Calm Calm - 0.13 in Rain Heavy Rain
10:30 PM 64.4 °F 64.4 °F 100% 29.82 in 3.0 mi SE 6.9 mph - 0.20 in Rain Heavy Rain
10:56 PM 64.9 °F 64.0 °F 97% 29.81 in 8.0 mi Calm Calm - 0.24 in Rain Light Rain
11:56 PM 64.9 °F 63.0 °F 93% 29.79 in 8.0 mi SE 4.6 mph - 0.12 in Rain Light Rain